Weather History for KAPC - March, 2012

Change the Weather History Date:

Wednesday, March 14, 2012

  Actual Average Record
Temperature  
Mean Temperature 56 °F 52 °F  
Max Temperature 58 °F 64 °F 78 °F (2004)
Min Temperature 54 °F 40 °F 30 °F (2002)
Degree Days  
Heating Degree Days 9    
Month to date heating degree days 199  
Since 1 July heating degree days 2463  
Cooling Degree Days 0    
Month to date cooling degree days 0  
Year to date cooling degree days 0  
Growing Degree Days 5 (Base 50)    
Moisture  
Dew Point 54 °F    
Average Humidity 93    
Maximum Humidity 100    
Minimum Humidity 86    
Precipitation  
Precipitation 1.59 in - 2.28 in (1942)
Month to date precipitation 2.27  
Year to date precipitation 7.55  
Since 1 July precipitation 11.13  
Sea Level Pressure  
Sea Level Pressure 30.04 in    
Wind  
Wind Speed 7 mph (SSW)    
Max Wind Speed 15 mph    
Max Gust Speed 20 mph    
Visibility 4 miles    
Events Rain    
T = Trace of Precipitation, MM = Missing Value Source: NWS Daily Summary

Daily Weather History Graph

Daily Weather History Graph

Search for Another Location

Airport or City:

Trip Planner

Search our weather history database for the weather conditions in past years. The results will help you decide how hot, cold, wet, or windy it might be!

Date:

Astronomy

Mar. 14, 2012 Rise Set
Actual Time 7:20 AM PDT 7:15 PM PDT
Civil Twilight 6:54 AM PDT 7:42 PM PDT
Nautical Twilight 6:24 AM PDT 8:12 PM PDT
Astronomical Twilight 5:53 AM PDT 8:43 PM PDT
Moon 1:50 AM PDT (3/14) 11:43 AM PDT (3/14)
Length of Visible Light 12h 47m
Length of Day
11h 54m
Waning Gibbous, 53% of the Moon is Illuminated
Mar 14
Waning Gibbous
Mar 14
Last Quarter
Mar 22
New
Mar 30
First Quarter
Apr 6
Full

Hourly Weather History & Observations

Time (PDT) Temp. Dew Point Humidity Pressure Visibility Wind Dir Wind Speed Gust Speed Precip Events Conditions
12:03 AM 53.6 °F 51.8 °F 94% 29.97 in 10.0 mi South 15.0 mph 20.7 mph N/A   Overcast
12:24 AM 53.6 °F 51.8 °F 94% 29.97 in 9.0 mi South 11.5 mph - 0.01 in Rain Light Rain
12:37 AM 53.6 °F 51.8 °F 94% 29.97 in 8.0 mi South 11.5 mph - 0.01 in Rain Light Rain
12:54 AM 54.0 °F 52.0 °F 93% 29.94 in 6.0 mi South 12.7 mph 20.7 mph 0.01 in   Overcast
12:58 AM 53.6 °F 51.8 °F 94% 29.97 in 6.0 mi South 10.4 mph - N/A   Overcast
1:29 AM 53.6 °F 51.8 °F 94% 29.96 in 5.0 mi South 11.5 mph - 0.02 in Rain Light Rain
1:35 AM 53.6 °F 51.8 °F 94% 29.96 in 6.0 mi South 12.7 mph - 0.02 in Rain Light Rain
1:54 AM 54.0 °F 52.0 °F 93% 29.94 in 5.0 mi South 13.8 mph - 0.02 in Rain Light Rain
2:54 AM 54.0 °F 52.0 °F 93% 29.94 in 3.0 mi South 10.4 mph - 0.04 in Rain Light Rain
3:54 AM 54.0 °F 52.0 °F 93% 29.93 in 5.0 mi South 10.4 mph - 0.07 in Rain Rain
4:00 AM 53.6 °F 51.8 °F 94% 29.96 in 5.0 mi South 8.1 mph - 0.01 in Rain Rain
4:13 AM 53.6 °F 53.6 °F 100% 29.96 in 6.0 mi SSW 9.2 mph - 0.02 in Rain Light Rain
4:31 AM 53.6 °F 53.6 °F 100% 29.96 in 3.0 mi SSW 9.2 mph - 0.06 in Rain Rain
5:54 AM 54.0 °F 53.1 °F 97% 29.95 in 4.0 mi SSW 9.2 mph - 0.09 in Rain Rain
6:02 AM 53.6 °F 53.6 °F 100% 29.97 in 3.0 mi SSW 8.1 mph - 0.03 in Rain Rain
6:24 AM 53.6 °F 53.6 °F 100% 29.98 in 2.5 mi SSW 6.9 mph - 0.10 in Rain Rain
6:32 AM 53.6 °F 53.6 °F 100% 29.98 in 3.0 mi SSW 5.8 mph - 0.13 in Rain Rain
6:54 AM 54.0 °F 53.1 °F 97% 29.97 in 3.0 mi SW 4.6 mph - 0.20 in Rain Rain
7:51 AM 53.6 °F 53.6 °F 100% 30.01 in 3.0 mi WSW 3.5 mph - 0.19 in Rain Rain
7:54 AM 54.0 °F 53.1 °F 97% 29.99 in 2.5 mi WSW 3.5 mph - 0.19 in Rain Rain
8:01 AM 53.6 °F 53.6 °F 100% 30.02 in 2.0 mi WSW 4.6 mph - 0.02 in Rain Rain
8:54 AM 54.0 °F 53.1 °F 97% 30.01 in 4.0 mi SSW 4.6 mph - 0.14 in Rain Light Rain
9:39 AM 55.4 °F 53.6 °F 94% 30.05 in 2.0 mi SW 6.9 mph - 0.07 in Rain Rain
9:54 AM 55.0 °F 53.1 °F 93% 30.04 in 3.0 mi SSW 5.8 mph - 0.09 in Rain Light Rain
10:05 AM 55.4 °F 53.6 °F 94% 30.06 in 2.5 mi SSW 5.8 mph - 0.02 in Rain Rain
10:54 AM 55.9 °F 54.0 °F 93% 30.05 in 2.5 mi SSW 4.6 mph - 0.09 in Rain Light Rain
11:01 AM 55.4 °F 53.6 °F 94% 30.07 in 5.0 mi South 8.1 mph - 0.00 in Rain Light Rain
11:54 AM 57.0 °F 54.0 °F 89% 30.06 in 5.0 mi South 6.9 mph - 0.05 in Rain Light Rain
12:14 PM 55.4 °F 53.6 °F 94% 30.08 in 7.0 mi South 9.2 mph - 0.02 in Rain Light Rain
12:20 PM 55.4 °F 55.4 °F 100% 30.09 in 7.0 mi SSW 8.1 mph - 0.02 in Rain Light Rain
12:54 PM 55.9 °F 55.0 °F 97% 30.06 in 4.0 mi SSW 8.1 mph - 0.07 in Rain Light Rain
1:54 PM 55.9 °F 54.0 °F 93% 30.06 in 5.0 mi SSW 6.9 mph - 0.05 in Rain Light Rain
2:35 PM 57.2 °F 55.4 °F 94% 30.07 in 9.0 mi South 8.1 mph - 0.03 in Rain Light Rain
2:54 PM 57.9 °F 55.0 °F 90% 30.04 in 7.0 mi South 9.2 mph - 0.04 in Rain Light Rain
3:03 PM 57.2 °F 55.4 °F 94% 30.06 in 10.0 mi SSE 10.4 mph - 0.00 in Rain Light Rain
3:54 PM 57.9 °F 55.0 °F 90% 30.04 in 10.0 mi South 10.4 mph - 0.02 in Rain Light Rain
4:54 PM 57.0 °F 55.0 °F 93% 30.05 in 9.0 mi SSW 10.4 mph - 0.02 in Rain Light Rain
5:01 PM 57.2 °F 55.4 °F 94% 30.08 in 6.0 mi SSW 11.5 mph - 0.00 in Rain Light Rain
5:15 PM 57.2 °F 55.4 °F 94% 30.08 in 2.5 mi SSW 9.2 mph - 0.02 in Rain Rain
5:25 PM 57.2 °F 55.4 °F 94% 30.08 in 3.0 mi SSW 6.9 mph - 0.03 in Rain Light Rain
5:54 PM 57.0 °F 55.0 °F 93% 30.06 in 2.0 mi SSW 9.2 mph - 0.04 in Rain Light Rain
6:11 PM 55.4 °F 55.4 °F 100% 30.08 in 3.0 mi SW 9.2 mph - 0.02 in Rain Light Rain
6:20 PM 55.4 °F 53.6 °F 94% 30.09 in 2.5 mi SW 8.1 mph - 0.03 in Rain Rain
6:39 PM 55.4 °F 53.6 °F 94% 30.08 in 1.2 mi SSW 5.8 mph - 0.07 in Rain Rain
6:54 PM 55.9 °F 55.0 °F 97% 30.06 in 1.8 mi SSW 6.9 mph - 0.09 in Rain Light Rain
7:05 PM 55.4 °F 55.4 °F 100% 30.08 in 2.5 mi SSW 6.9 mph - 0.01 in Rain Light Rain
7:12 PM 55.4 °F 55.4 °F 100% 30.09 in 3.0 mi SW 5.8 mph - 0.02 in Rain Light Rain
7:26 PM 55.4 °F 55.4 °F 100% 30.09 in 2.5 mi SSW 3.5 mph - 0.02 in Rain Light Rain
7:41 PM 55.4 °F 55.4 °F 100% 30.10 in 3.0 mi SW 3.5 mph - 0.03 in Rain Light Rain
7:54 PM 55.9 °F 54.0 °F 93% 30.07 in 4.0 mi Calm Calm - 0.03 in   Overcast
8:21 PM 55.4 °F 55.4 °F 100% 30.10 in 2.5 mi Calm Calm - 0.01 in Rain Light Rain
8:49 PM 55.4 °F 53.6 °F 94% 30.10 in 3.0 mi SSW 8.1 mph - 0.01 in   Overcast
8:54 PM 55.9 °F 54.0 °F 93% 30.08 in 3.0 mi SSW 8.1 mph - 0.01 in Rain Light Rain
9:20 PM 55.4 °F 53.6 °F 94% 30.11 in 3.0 mi South 5.8 mph - 0.01 in   Overcast
9:29 PM 55.4 °F 53.6 °F 94% 30.11 in 2.5 mi South 4.6 mph - 0.01 in   Overcast
9:50 PM 55.4 °F 53.6 °F 94% 30.12 in 2.0 mi SSW 5.8 mph - 0.02 in Rain Light Rain
9:54 PM 55.9 °F 54.0 °F 93% 30.09 in 2.0 mi SSW 6.9 mph - 0.02 in Rain Light Rain
10:30 PM 55.4 °F 53.6 °F 94% 30.12 in 3.0 mi SSW 8.1 mph - 0.02 in Rain Light Rain
10:54 PM 55.9 °F 54.0 °F 93% 30.09 in 3.0 mi SSW 5.8 mph - 0.03 in   Overcast
11:02 PM 55.4 °F 53.6 °F 94% 30.12 in 2.0 mi South 5.8 mph - 0.00 in Rain Light Rain
11:22 PM 55.4 °F 53.6 °F 94% 30.12 in 1.8 mi South 3.5 mph - 0.01 in Rain Light Rain
11:35 PM 55.4 °F 53.6 °F 94% 30.12 in 2.5 mi South 4.6 mph - 0.02 in   Overcast
11:54 PM 55.0 °F 54.0 °F 96% 30.10 in 1.5 mi South 4.6 mph - 0.03 in   Overcast